TimeEDT,TemperatureF,Dew PointF,Humidity,Sea Level PressureIn,VisibilityMPH,Wind Direction,Wind SpeedMPH,Gust SpeedMPH,PrecipitationIn,Events,Conditions,WindDirDegrees,DateUTC
12:56 AM,73.9,73.0,97,30.21,10.0,Calm,Calm,-,N/A,,Mostly Cloudy,0,2013-08-21 04:56:00
1:56 AM,73.9,73.0,97,30.19,8.0,Calm,Calm,-,N/A,,Overcast,0,2013-08-21 05:56:00
2:56 AM,73.0,72.0,96,30.19,6.0,NNE,3.5,-,N/A,,Clear,30,2013-08-21 06:56:00
3:56 AM,73.0,72.0,96,30.19,7.0,North,3.5,-,N/A,,Clear,10,2013-08-21 07:56:00
4:56 AM,73.0,72.0,96,30.19,8.0,Calm,Calm,-,N/A,,Clear,0,2013-08-21 08:56:00
5:56 AM,72.0,71.1,97,30.19,6.0,Calm,Calm,-,N/A,,Clear,0,2013-08-21 09:56:00
6:56 AM,72.0,71.1,97,30.20,6.0,Calm,Calm,-,N/A,,Clear,0,2013-08-21 10:56:00
7:56 AM,75.0,73.0,94,30.22,10.0,Calm,Calm,-,N/A,,Partly Cloudy,0,2013-08-21 11:56:00
8:56 AM,78.1,73.9,87,30.23,10.0,Calm,Calm,-,N/A,,Scattered Clouds,0,2013-08-21 12:56:00
9:56 AM,82.0,75.0,79,30.25,10.0,Calm,Calm,-,N/A,,Mostly Cloudy,0,2013-08-21 13:56:00
10:56 AM,82.9,73.9,74,30.25,10.0,ESE,3.5,-,N/A,,Mostly Cloudy,110,2013-08-21 14:56:00
11:56 AM,84.9,72.0,65,30.24,10.0,East,4.6,-,N/A,,Mostly Cloudy,90,2013-08-21 15:56:00
12:56 PM,86.0,73.0,65,30.22,10.0,East,6.9,-,N/A,,Mostly Cloudy,80,2013-08-21 16:56:00
1:36 PM,84.2,71.6,66,30.21,0.8,SE,9.2,-,N/A,,Haze,130,2013-08-21 17:36:00
1:44 PM,84.2,73.4,70,30.20,10.0,SE,5.8,-,N/A,,Mostly Cloudy,130,2013-08-21 17:44:00
1:56 PM,84.0,73.9,72,30.20,10.0,SE,6.9,-,N/A,,Partly Cloudy,130,2013-08-21 17:56:00
2:11 PM,86.0,75.2,70,30.19,0.8,SE,8.1,-,N/A,,Haze,140,2013-08-21 18:11:00
2:19 PM,87.8,75.2,66,30.19,10.0,ESE,8.1,-,N/A,,Clear,110,2013-08-21 18:19:00
2:28 PM,86.0,75.2,70,30.18,10.0,SE,8.1,-,N/A,,Mostly Cloudy,130,2013-08-21 18:28:00
3:03 PM,87.8,73.4,62,30.17,10.0,SSE,9.2,-,N/A,,Clear,160,2013-08-21 19:03:00
3:56 PM,87.1,73.0,63,30.16,10.0,SSE,10.4,-,N/A,,Scattered Clouds,160,2013-08-21 19:56:00
4:56 PM,86.0,73.9,67,30.15,10.0,SSE,9.2,-,N/A,,Scattered Clouds,160,2013-08-21 20:56:00
5:56 PM,84.0,73.9,72,30.15,10.0,SSE,9.2,-,N/A,,Partly Cloudy,160,2013-08-21 21:56:00
6:56 PM,82.0,73.9,76,30.15,10.0,South,5.8,-,N/A,,Partly Cloudy,170,2013-08-21 22:56:00
7:56 PM,79.0,75.0,88,30.14,10.0,South,4.6,-,N/A,,Scattered Clouds,170,2013-08-21 23:56:00
8:56 PM,78.1,75.0,90,30.17,10.0,SW,3.5,-,N/A,,Scattered Clouds,220,2013-08-22 00:56:00
9:56 PM,75.9,69.1,79,30.21,10.0,NW,11.5,23.0,N/A,,Overcast,310,2013-08-22 01:56:00
10:04 PM,75.2,68.0,78,30.21,10.0,NW,11.5,-,0.02,Rain,Light Rain,310,2013-08-22 02:04:00
10:41 PM,73.4,69.8,88,-9999,-9999.0,North,4.6,-,0.02,,Unknown,360,2013-08-22 02:41:00
10:56 PM,73.0,70.0,90,30.18,10.0,Calm,Calm,-,0.02,,Mostly Cloudy,0,2013-08-22 02:56:00
11:56 PM,72.0,70.0,93,30.15,10.0,SSW,3.5,-,N/A,,Clear,200,2013-08-22 03:56:00